Weather in Smolenskoe

Russia / Altai Krai     52°18′09″N   85°04′52″E
temp.,
°C
wind,
m/s
gust,
m/s
humid.,
%
clouds,
%
prec.,
mm/h
press.,
hPa
HPBL,
m
7 may, fri
fri701:00+17sse3347100 0.0 100430
04:00+17ssw3450100 0.0 100563
07:00+17sw41153100 0.0 1007204
10:00+17w61065100 0.0 1010401
13:00+15w5982100 0.3 1013605
16:00+13wsw5887100 1.9 1015607
19:00+15sw6968100 2.2 1016555
22:00+12sw388259 0.0 1018150
8 may, sat
sat801:00+10w3685100 0.0 102088
04:00+8wsw337875 0.0 102128
07:00+9w22725 0.0 102251
10:00+14wnw22460 0.0 1022558
13:00+18wnw22330 0.0 10201323
16:00+20wnw23290 0.0 10191680
19:00+19nw12350 0.0 1019658
22:00+13nne01490 0.0 102010
9 may, sun
sun901:00+11ssw33551 0.0 101921
04:00+10ssw22575 0.0 101914
07:00+11ssw22601 0.0 101937
10:00+18sw22425 0.0 1018413
13:00+21nne2234100 0.0 10172016
16:00+21ne333522 0.0 10162179
19:00+20ne464624 0.0 1016402
22:00+13ene410654 0.0 1016235
10 may, mon
mon1001:00+10ene511595 0.0 1015243
04:00+8ene496299 0.0 1014185
07:00+8ne3767100 0.0 1013194
10:00+13ene3463100 0.0 1011374
13:00+17ne555438 0.0 1009800
16:00+20ne44457 0.0 10071178
19:00+18nne464876 0.1 1007861
22:00+13nne41052100 0.2 1007345
11 may, tue
tue1101:00+9nnw226284 0.2 100822
04:00+9nw3664100 0.0 1009231
07:00+9wnw466690 0.0 1012468
10:00+11wnw56560 0.0 10131035
13:00+15nw5740100 0.0 10142474
16:00+14nw674395 0.1 10152090
19:00+14nw674931 0.3 10161569
22:00+9nw3674100 0.3 1019134